Weather History for Gillam, MB

Change the Weather History Date:

Saturday, June 22, 2013

  Actual Average Record
Temperature  
Mean Temperature 64 °F -  
Max Temperature 79 °F 68 °F 86 °F (1999)
Min Temperature 49 °F 48 °F 33 °F (2004)
Degree Days  
Heating Degree Days 1    
Growing Degree Days 14 (Base 50)    
Moisture  
Dew Point 43 °F    
Average Humidity 44    
Maximum Humidity 76    
Minimum Humidity 15    
Precipitation  
Precipitation 0.00 in 0.10 in - ()
Sea Level Pressure  
Sea Level Pressure 30.01 in    
Wind  
Wind Speed 5 mph ()    
Max Wind Speed 12 mph    
Max Gust Speed -    
Visibility 14.6 miles    
Events      
Averages and records for this station are not official NWS values.
T = Trace of Precipitation, MM = Missing Value Source: Averaged Metar Reports

Daily Weather History Graph

Daily Weather History Graph

Search for Another Location

Airport:

Trip Planner

Search our weather history database for the weather conditions in past years. The results will help you decide how hot, cold, wet, or windy it might be!

Date:

Astronomy

Jun. 22, 2013 Rise Set
Actual Time 4:29 AM CDT 10:12 PM CDT
Civil Twilight 3:24 AM CDT 11:16 PM CDT
Nautical Twilight 1:53 AM CDT 12:48 AM CDT
Astronomical Twilight Sun does not rise Sun does not rise
Moon 9:11 PM CDT 3:58 AM CDT
Length of Visible Light 19h 51m
Length of Day
17h 42m
Waxing Gibbous, 99% of the Moon is Illuminated
Jun 22
Waxing Gibbous
Jun 23
Full
Jun 29
Last Quarter
Jul 8
New
Jul 15
First Quarter

Hourly Weather History & Observations

Time (CDT) Temp. Dew Point Humidity Pressure Visibility Wind Dir Wind Speed Gust Speed Precip Events Conditions
12:00 AM 59.0 °F 41.0 °F 51% 30.08 in 15.0 mi SW 5.8 mph - N/A   Scattered Clouds
1:00 AM 58 °F 41 °F 43% 30.09 in 15 mi SSW 4.6 mph - -   Clear
1:00 AM 57.2 °F 41.0 °F 55% 30.09 in 15.0 mi SSW 5.8 mph - N/A   Scattered Clouds
2:00 AM 57.2 °F 41.0 °F 55% 30.09 in 15.0 mi SSW 9.2 mph - N/A   Scattered Clouds
3:00 AM 55.4 °F 42.8 °F 63% 30.09 in 15.0 mi Calm Calm - N/A   Mostly Cloudy
4:00 AM 51.8 °F 42.8 °F 71% 30.08 in 15.0 mi SW 4.6 mph - N/A   Mostly Cloudy
5:00 AM 51.8 °F 42.8 °F 71% 30.07 in 15.0 mi SSW 4.6 mph - N/A   Mostly Cloudy
6:00 AM 51.8 °F 44.6 °F 76% 30.06 in 15.0 mi SSW 4.6 mph - N/A   Mostly Cloudy
7:00 AM 55 °F 43 °F 55% 30.08 in 15 mi South 4.6 mph - -   Overcast
7:00 AM 55.4 °F 42.8 °F 63% 30.08 in 15.0 mi South 2.3 mph - N/A   Overcast
8:00 AM 60.8 °F 46.4 °F 59% 30.07 in 15.0 mi South 4.6 mph - N/A   Overcast
9:00 AM 68.0 °F 48.2 °F 49% 30.07 in 10.0 mi SSW 5.8 mph - N/A   Mostly Cloudy
10:00 AM 75.2 °F 39.2 °F 27% 30.06 in 10.0 mi SSW 11.5 mph - N/A   Mostly Cloudy
11:00 AM 77.0 °F 39.2 °F 26% 30.05 in 15.0 mi SSW 8.1 mph - N/A   Overcast
12:00 PM 77.0 °F 39.2 °F 26% 30.03 in 15.0 mi South 9.2 mph - N/A   Overcast
1:00 PM 78 °F 39 °F 15% 30.01 in 15 mi SSW 9.2 mph - -   Overcast
1:00 PM 78.8 °F 39.2 °F 24% 30.01 in 15.0 mi South 11.5 mph - N/A   Overcast
2:00 PM 78.8 °F 35.6 °F 21% 29.99 in 15.0 mi SW 5.8 mph - N/A   Overcast
3:00 PM 77.0 °F 39.2 °F 26% 29.97 in 15.0 mi NNW 9.2 mph - N/A   Overcast
4:00 PM 77.0 °F 41.0 °F 28% 29.96 in 15.0 mi Calm Calm - N/A   Overcast
5:00 PM 78.8 °F 42.8 °F 28% 29.94 in 15.0 mi Calm Calm - N/A   Mostly Cloudy
6:00 PM 77.0 °F 39.2 °F 26% 29.93 in 15.0 mi Calm Calm - N/A   Mostly Cloudy
7:00 PM 72 °F 47 °F 31% 29.91 in 15 mi NE 2.3 mph - -   Scattered Clouds
7:00 PM 71.6 °F 48.2 °F 43% 29.91 in 15.0 mi NNE 2.3 mph - N/A   Mostly Cloudy
8:00 PM 69.8 °F 46.4 °F 43% 29.89 in 15.0 mi NE 3.5 mph - N/A   Overcast
9:00 PM 66.2 °F 48.2 °F 52% 29.89 in 15.0 mi SSE 2.3 mph - N/A   Mostly Cloudy
10:00 PM 68.0 °F 46.4 °F 46% 29.88 in 15.0 mi East 3.5 mph - N/A   Mostly Cloudy
11:00 PM 66.2 °F 44.6 °F 46% 29.87 in 15.0 mi East 3.5 mph - N/A   Mostly Cloudy